Date String (YYYY-MM-DD hh:mm:ss) UTC,Instrument flags,absolute air pressure of the measurement (hPa),sample flow rate (lpm),inlet stack bypass flow (lpm),air temperature of the measurement (°C),ambient temperature measured by the external sensor (°C),aerosol sample conditioner tube jacket temperature (°C),OPC LED temperature (°C),internal box temperature (°C),relative humidity of the measurement (%),span deviation,mass concentration of particles derived from Lorenz-Mie calculation of OPC scattering (μg/m³),mass concentration of particles derived from Lorenz-Mie calculation of OPC scattering (μg/m³),mass concentration of particles derived from Lorenz-Mie calculation of OPC scattering (μg/m³)
DateTimeUTC,F1_M11,P_M11,Q1_M11,Q2_M11,T1_M11,T2_M11,T3_M11,T4_M11,T5_M11,U1_M11,ZSPAN_M11,X0_M11,X2_M11,X1_M11
2023-12-14 10:00:00,SystemResetWarning,0834.3,5.01,000.00,018.8,017.8,000.0,027.1,020.0,23.4,-000.3,0025.54,0019.06,0018.23
2023-12-14 10:01:00,SystemResetWarning,0834.3,4.99,000.00,018.8,017.8,000.0,027.1,020.0,23.4,-000.4,0025.27,0019.08,0018.24
2023-12-14 10:02:00,SystemResetWarning,0834.7,4.99,000.00,018.8,017.8,000.0,027.1,020.0,23.4,-000.3,0025.27,0019.08,0018.25
2023-12-14 10:03:00,SystemResetWarning,0834.6,5.00,000.00,018.8,017.8,000.0,027.1,020.0,23.4,-000.0,0025.28,0019.12,0018.28
2023-12-14 10:04:00,SystemResetWarning,0834.6,4.99,000.00,018.8,017.8,000.0,027.1,020.0,23.4,-000.1,0025.27,0019.10,0018.27
2023-12-14 10:05:00,SystemResetWarning,0834.3,5.00,000.00,018.8,017.8,000.0,027.1,020.0,23.4,0000.1,0025.22,0019.10,0018.29
2023-12-14 10:06:00,SystemResetWarning,0834.2,5.00,000.00,018.8,017.8,000.0,027.1,020.0,23.4,0000.3,0025.13,0019.13,0018.31
2023-12-14 10:07:00,SystemResetWarning,0834.1,5.00,000.00,018.8,017.8,000.0,027.1,020.0,23.5,0000.3,0023.87,0019.12,0018.32
2023-12-14 10:08:00,SystemResetWarning,0834.1,5.01,000.00,018.8,017.8,000.0,027.1,020.0,23.5,0000.3,0023.63,0019.10,0018.33
2023-12-14 10:09:00,SystemResetWarning,0834.1,5.00,000.00,018.8,017.8,000.0,027.1,020.0,23.5,0000.4,0023.13,0019.11,0018.34
2023-12-14 10:10:00,SystemResetWarning,0834.1,5.00,000.00,018.8,017.8,000.0,027.1,020.0,23.5,0000.5,0023.52,0019.24,0018.42
2023-12-14 10:11:00,SystemResetWarning,0834.1,5.01,000.00,018.8,017.8,000.0,027.1,020.0,23.5,0000.4,0024.19,0019.41,0018.48
2023-12-14 10:12:00,SystemResetWarning,0834.1,5.00,000.00,018.8,017.8,000.0,027.1,020.0,23.5,0000.3,0024.88,0019.58,0018.56
2023-12-14 10:13:00,SystemResetWarning,0834.1,5.00,000.00,018.8,017.8,000.0,027.1,020.0,23.6,0000.2,0025.66,0019.70,0018.64
2023-12-14 10:14:00,SystemResetWarning,0834.1,5.00,000.00,018.8,017.8,000.0,027.1,020.0,23.6,0000.1,0026.71,0019.87,0018.74
2023-12-14 10:15:00,SystemResetWarning,0834.1,5.00,000.00,018.8,017.8,000.0,027.1,020.0,23.6,0000.3,0027.73,0020.07,0018.85
2023-12-14 10:16:00,SystemResetWarning,0834.1,4.99,000.00,018.8,017.8,000.0,027.1,020.0,23.6,0000.3,0028.52,0020.20,0018.99
2023-12-14 10:17:00,SystemResetWarning,0834.0,4.99,000.00,018.8,017.8,000.0,027.1,020.0,23.6,-000.0,0029.57,0020.36,0019.11
2023-12-14 10:18:00,SystemResetWarning,0834.0,5.00,000.00,018.8,017.8,000.0,027.1,020.0,23.6,-000.1,0030.08,0020.50,0019.22
2023-12-14 10:19:00,SystemResetWarning,0834.0,5.02,000.00,018.8,017.8,000.0,027.1,020.0,23.6,-000.1,0030.59,0020.71,0019.35
2023-12-14 10:20:00,SystemResetWarning,0834.0,5.00,000.00,018.8,017.8,000.0,027.1,020.0,23.6,0000.1,0031.01,0020.91,0019.49
2023-12-14 10:21:00,SystemResetWarning,0834.0,4.99,000.00,018.8,017.8,000.0,027.1,020.0,23.6,-000.1,0031.81,0021.05,0019.60
2023-12-14 10:22:00,SystemResetWarning,0834.0,4.99,000.00,018.8,017.8,000.0,027.1,020.0,23.6,0000.0,0031.47,0021.03,0019.64
2023-12-14 10:23:00,SystemResetWarning,0834.0,5.00,000.00,018.8,017.8,000.0,027.1,020.0,23.9,0000.2,0031.03,0020.96,0019.63
2023-12-14 10:24:00,SystemResetWarning,0834.0,5.01,000.00,018.8,017.8,000.0,027.1,020.0,26.2,0000.1,0030.59,0020.87,0019.60
2023-12-14 10:25:00,SystemResetWarning,0834.0,5.00,000.00,018.8,017.8,000.0,027.1,020.0,26.6,-000.0,0029.80,0020.77,0019.54
2023-12-14 10:26:00,SystemResetWarning,0833.9,4.99,000.00,018.8,017.8,000.0,027.1,020.0,24.7,-000.2,0029.03,0020.61,0019.46
2023-12-14 10:27:00,SystemResetWarning,0834.0,4.99,000.00,018.8,017.8,000.0,027.1,020.0,24.1,-000.3,0028.40,0020.53,0019.36
2023-12-14 10:28:00,SystemResetWarning,0833.9,5.00,000.00,018.8,017.8,000.0,027.1,020.0,23.9,-000.2,0027.88,0020.38,0019.24
2023-12-14 10:29:00,SystemResetWarning,0834.0,5.01,000.00,018.8,017.8,000.0,027.1,020.0,23.9,-000.0,0027.46,0020.23,0019.13
2023-12-14 10:30:00,SystemResetWarning,0834.0,5.01,000.00,018.8,017.8,000.0,027.1,020.0,23.8,-000.1,0026.86,0020.00,0018.98
2023-12-14 10:31:00,SystemResetWarning,0834.0,5.00,000.00,018.8,017.8,000.0,027.1,020.0,23.8,-000.2,0026.59,0019.78,0018.84
2023-12-14 10:32:00,SystemResetWarning,0834.0,4.99,000.00,018.8,017.8,000.0,027.1,020.0,23.8,-000.3,0025.88,0019.63,0018.72
2023-12-14 10:33:00,SystemResetWarning,0834.0,4.99,000.00,018.8,017.8,000.0,027.1,020.0,23.7,-000.4,0026.13,0019.60,0018.66
2023-12-14 10:34:00,SystemResetWarning,0834.0,4.99,000.00,018.8,017.8,000.0,027.1,020.0,23.7,-000.4,0026.01,0019.55,0018.63
2023-12-14 10:35:00,SystemResetWarning,0833.9,5.01,000.00,018.8,017.8,000.0,027.1,020.0,23.7,-000.4,0025.74,0019.55,0018.64
2023-12-14 10:36:00,SystemResetWarning,0833.9,5.01,000.00,018.8,017.8,000.0,027.1,020.0,23.7,-000.2,0025.86,0019.60,0018.66
2023-12-14 10:37:00,SystemResetWarning,0833.9,5.01,000.00,018.8,017.8,000.0,027.1,020.0,23.7,-000.1,0026.23,0019.67,0018.71
2023-12-14 10:38:00,SystemResetWarning,0833.9,5.00,000.00,018.8,017.8,000.0,027.1,020.0,23.6,-000.1,0026.99,0019.77,0018.77
2023-12-14 10:39:00,SystemResetWarning,0833.9,4.99,000.00,018.8,017.8,000.0,027.1,020.0,23.6,-000.1,0027.19,0019.88,0018.82
2023-12-14 10:40:00,SystemResetWarning,0833.9,5.00,000.00,018.8,017.8,000.0,027.1,020.0,23.6,-000.3,0027.28,0019.96,0018.87
2023-12-14 10:41:00,SystemResetWarning,0833.8,4.99,000.00,018.8,017.8,000.0,027.1,020.0,23.6,-000.4,0027.39,0019.99,0018.89
2023-12-14 10:42:00,SystemResetWarning,0834.0,5.00,000.00,018.8,017.8,000.0,027.1,020.0,23.5,-000.4,0027.37,0020.03,0018.89
2023-12-14 10:43:00,SystemResetWarning,0833.9,5.01,000.00,018.8,017.8,000.0,027.1,020.0,23.5,-000.4,0027.40,0020.02,0018.89
2023-12-14 10:44:00,SystemResetWarning,0833.9,5.01,000.00,018.8,017.8,000.0,027.1,020.0,23.5,-000.1,0027.31,0019.96,0018.87
2023-12-14 10:45:00,SystemResetWarning,0833.9,5.01,000.00,018.8,017.8,000.0,027.1,020.0,23.5,0000.1,0027.29,0019.93,0018.86
2023-12-14 10:46:00,SystemResetWarning,0834.0,5.00,000.00,018.8,017.8,000.0,027.1,020.0,23.5,0000.0,0027.20,0019.94,0018.85
2023-12-14 10:47:00,SystemResetWarning,0833.9,4.99,000.00,018.8,017.8,000.0,027.1,020.0,23.5,-000.1,0027.21,0019.93,0018.82
2023-12-14 10:48:00,SystemResetWarning,0833.9,4.99,000.00,018.8,017.8,000.0,027.1,020.0,23.5,-000.1,0027.26,0019.94,0018.84
2023-12-14 10:49:00,SystemResetWarning,0834.0,5.00,000.00,018.8,017.8,000.0,027.1,020.0,23.5,-000.1,0026.65,0019.90,0018.82
2023-12-14 10:50:00,SystemResetWarning,0834.0,5.00,000.00,018.8,017.8,000.0,027.1,020.0,23.5,0000.1,0026.83,0019.86,0018.83
2023-12-14 10:51:00,SystemResetWarning,0833.9,5.00,000.00,018.8,017.8,000.0,027.1,020.0,23.5,0000.3,0027.49,0019.85,0018.86
2023-12-14 10:52:00,SystemResetWarning,0834.0,5.00,000.00,018.8,017.8,000.0,027.1,020.0,23.5,0000.3,0028.32,0019.95,0018.93
2023-12-14 10:53:00,SystemResetWarning,0833.9,5.00,000.00,018.8,017.8,000.0,027.1,020.0,23.5,0000.3,0028.96,0020.04,0019.04
2023-12-14 10:54:00,SystemResetWarning,0833.9,5.00,000.00,018.8,017.8,000.0,027.1,020.0,23.6,0000.1,0028.94,0020.17,0019.15
2023-12-14 10:55:00,SystemResetWarning,0834.0,5.00,000.00,018.8,017.8,000.0,027.1,020.0,23.6,-000.1,0029.29,0020.33,0019.26
2023-12-14 10:56:00,SystemResetWarning,0834.0,5.00,000.00,018.8,017.8,000.0,027.1,020.0,23.6,-000.4,0029.60,0020.45,0019.36
2023-12-14 10:57:00,SystemResetWarning,0834.0,5.00,000.00,018.8,017.8,000.0,027.1,020.0,23.6,-000.5,0029.66,0020.53,0019.45
2023-12-14 10:58:00,SystemResetWarning,0834.0,5.00,000.00,018.8,017.8,000.0,027.1,020.0,23.6,-000.5,0029.65,0020.60,0019.56
2023-12-14 10:59:00,SystemResetWarning,0834.0,5.00,000.00,018.8,017.8,000.0,027.1,020.0,23.6,-000.5,0029.67,0020.62,0019.60
